Regional Weather Roundup
Issued by NWS Green Bay, WI

Home | Current Version | Previous Version | Graphics & Text | Print | Product List | Glossary Off
Versions: 1 2 3 4 5 6 7 8 9 10 11 12 13 14 15 16 17 18 19 20 21 22 23 24 25 26 27 28 29 30 31 32 33 34 35 36 37 38 39 40 41 42 43 44 45 46 47 48 49 50

000
ASUS43 KGRB 271010
RWRGRB

NORTH-CENTRAL AND NORTHEAST WISCONSIN REGIONAL WEATHER ROUNDUP
NATIONAL WEATHER SERVICE GREEN BAY WI
500 AM CDT MON APR 27 2015

WIZ005-009-010>012-018-019-271100-
NORTH CENTRAL WISCONSIN

CITY           SKY/WX    TMP DP  RH WIND       PRES   REMARKS
IRONWOOD       CLEAR     28  27  93 W3        30.16R
MANITOWISH WTR CLEAR     31  27  86 N5        30.15R
ARBOR VITAE    CLEAR     32  28  87 CALM      30.14S
EAGLE RIVER    CLEAR     28  26  93 CALM      30.13R
LAND O LAKES   CLEAR     27  25  93 CALM      30.14S
RHINELANDER    CLEAR     33  26  75 NW3       30.13S
PHILLIPS       CLEAR     30  26  85 CALM      30.16R
ANTIGO         CLEAR     33  28  81 N3        30.11F
TOMAHAWK       CLEAR     30  27  88 CALM      30.15S
MERRILL        CLEAR     30  28  92 CALM      30.14R
$$

WIZ013-073-271100-
NORTHEAST WISCONSIN

CITY           SKY/WX    TMP DP  RH WIND       PRES   REMARKS
IRON MOUNTAIN  CLEAR     34  26  72 NW5       30.10R
MARINETTE      CLEAR     37  27  65 NW6       30.09S
OCONTO         CLEAR     38  29  70 NW3       30.10S
$$

WIZ017-030-035>037-045-271100-
CENTRAL WISCONSIN

CITY           SKY/WX    TMP DP  RH WIND       PRES   REMARKS
MEDFORD        CLEAR     31  27  84 NW5       30.15R
WAUSAU         CLEAR     37  31  78 NW6       30.12S
MOSINEE        CLEAR     36  32  87 NW6       30.14S
MARSHFIELD     CLEAR     34  28  79 W5        30.15R
WISC RAPIDS    CLEAR     33  27  78 CALM      30.15R
STEVENS POINT  CLEAR     30  26  83 CALM      30.13S
WAUPACA        CLEAR     34  31  87 NW3       30.12F
SHAWANO        CLEAR     35  29  79 CALM      30.11F
CLINTONVILLE   CLEAR     34  28  80 NW3       30.11S
$$

WIZ038-039-048-051-271100-
FOX VALLEY

CITY           SKY/WX    TMP DP  RH WIND       PRES   REMARKS
NWS GREEN BAY  CLEAR     37  30  75 NW7       30.10S
APPLETON       CLEAR     37  28  70 N9        30.10F
OSHKOSH        CLEAR     40  30  67 NW7       30.10S
FOND DU LAC    CLEAR     36  30  79 W7        30.10S
$$

WIZ022-050-052-271100-
EAST CENTRAL WISCONSIN

CITY           SKY/WX    TMP DP  RH WIND       PRES   REMARKS
STURGEON BAY   CLEAR     37  28  70 N8        30.11S
MANITOWOC      CLEAR     39  31  72 NW7       30.08F
SHEBOYGAN      CLEAR     38  30  73 NW8       30.08S
$$

LMZ563-521-522-541>543-271100-
LAKESHORE

STATION/POSITION TIME  TEMP    WIND        PRES    VSBY  WAVE
                       AIR SEA DIR/SP/G                  HT/PER
                 (UTC) (F)     (DEG/KT/KT) (MB)    (MI)  (FT/S)
SHEBOYGAN LKSHOR 1000   43     330/ 11/ 14 1019.2F
KEWAUNEE LKSHORE 1000   38     310/  6/  8 1018.0S
NORTHPORT PIER   1000   40     320/ 11/ 13 1018.6S
SISTER BAY LKSHO 1000   39      10/ 10/ 11   N/A
CHAMBERS ISLAND  1000   38     310/  5/  7 1019.3S
MENOMINEE LKSHOR 1000   41     320/ 10/ 11 1019.6S
$$


USA.gov is the U.S. government's official web portal to all federal, state and local government web resources and services.